SATELIOT_4 (60537 NORAD) Tracking and Keplerian Element Data

This shows tracking and keplerian element data for the satellite.

Feedback or suggestion? Click here.




ElementValue
Catalog60537
NameSATELIOT_4
Epoch Orbit848
Epoch Day286.77574039
Epoch Year2024
RAAN1.2244
Inclination97.7361
Eccentricity7.25E-05
Argument of Perigee292.4923
Mean Anonmoly67.6219
Mean Motion14.92241712
Decay Rate7.345E-05
L11 60537U 24149BX 24286.77574039 .00007345 00000+0 72530-3 0 9993
L22 60537 97.7361 1.2244 0000725 292.4923 67.6219 14.92241712 8488



Live tracking and technical data element details for SATELIOT_4 (NORAD 60537). SATELIOT_4 can be tracked NOW for your location showing map with azimuth and elevation plus other details from your city location.







IsCatalogInMostPopularTable: catalog: 60537, numindb: 4
Update: records affected: 1



GetName: 60537 SATELIOT_4

Hit Count: updated at: Wed, 04 Dec 2024 19:47:36 GMT